Location: Bakov nad Jizerou
(50.4784°N, 14.9394°E)
Time: 06:46:43
(UTC+00:00)

Cosmos 1110 Rocket - Visible Passes

Search period start: 26 October 2021 00:00
Search period end: 05 November 2021 00:00
Orbit: 753 x 780 km, 74.0° (Epoch: 25 October)

Date Brightness Start Highest point End Pass type
(mag) Time Alt. Az. Time Alt. Az. Time Alt. Az.
26 Oct 6.8 03:05:14 10° NNE 03:06:21 11° NNE 03:07:27 10° NE visible
26 Oct 5.3 04:45:00 10° NNW 04:49:54 41° ENE 04:54:48 10° SE visible
27 Oct 5.9 04:07:45 10° N 04:12:13 28° NE 04:16:40 10° ESE visible
28 Oct 6.4 03:30:40 10° N 03:34:26 20° NE 03:38:11 10° E visible
28 Oct 4.0 05:11:59 10° NNW 05:17:12 87° WSW 05:22:24 10° SSE visible
29 Oct 6.7 02:53:47 10° N 02:56:32 14° NE 02:59:16 10° ENE visible
29 Oct 4.6 04:34:34 10° NNW 04:39:43 60° ENE 04:44:51 10° SE visible
30 Oct 6.9 02:17:50 10° NNE 02:18:31 10° NNE 02:19:13 10° NE visible
30 Oct 5.3 03:57:15 10° NNW 04:02:07 39° NE 04:07:00 10° SE visible
31 Oct 5.9 03:20:02 10° N 03:24:26 27° NE 03:28:49 10° ESE visible
31 Oct 4.1 05:01:44 10° NNW 05:06:50 58° WSW 05:11:56 10° S visible
01 Nov 6.4 02:42:57 10° N 02:46:38 19° NE 02:50:18 10° E visible
01 Nov 4.0 04:24:13 10° NNW 04:29:27 89° ENE 04:34:40 10° SSE visible
02 Nov 6.7 02:06:06 10° N 02:08:43 14° NE 02:11:20 10° ENE visible
02 Nov 4.6 03:46:49 10° NNW 03:51:57 57° ENE 03:57:04 10° SE visible
03 Nov 5.3 03:09:30 10° NNW 03:14:21 38° NE 03:19:11 10° SE visible
03 Nov 4.5 04:51:37 10° NW 04:56:24 38° WSW 05:01:11 10° S visible
03 Nov 5.7 17:51:35 10° S 17:53:00 18° SSE 17:53:00 18° SSE visible
04 Nov 5.9 02:33:24 15° N 02:36:38 26° NE 02:40:58 10° ESE visible
04 Nov 4.0 04:13:58 10° NNW 04:19:05 61° WSW 04:24:13 10° S visible
04 Nov 5.3 17:15:01 10° SSE 17:17:37 22° SE 17:17:37 22° SE visible
04 Nov 5.7 18:55:47 10° SW 18:57:57 25° SW 18:57:57 25° SW visible
